date,time,SUV Intensity [MED/Hr],UV Index,Daily total [MED],Since Last [MED]
23/09/2022,00:00:57,0.000,0.0,0.0,0.0
23/09/2022,00:01:57,0.000,0.0,0.0,0.0
23/09/2022,00:03:05,0.001,0.0,0.0,0.0
23/09/2022,00:03:58,-0.001,0.0,0.0,0.0
23/09/2022,00:04:58,-0.001,0.0,0.0,0.0
23/09/2022,00:05:57,-0.001,0.0,0.0,0.0
23/09/2022,00:06:57,0.001,0.0,0.0,0.0
23/09/2022,00:07:57,0.000,0.0,0.0,0.0
23/09/2022,00:08:57,0.000,0.0,0.0,0.0
23/09/2022,00:09:57,-0.000,0.0,0.0,0.0
23/09/2022,00:10:57,-0.001,0.0,0.0,0.0
23/09/2022,00:11:57,0.000,0.0,0.0,0.0
23/09/2022,00:12:58,-0.000,0.0,0.0,0.0
23/09/2022,00:13:57,-0.001,0.0,0.0,0.0
23/09/2022,00:14:57,0.000,0.0,0.0,0.0
23/09/2022,00:16:10,-0.001,0.0,0.0,0.0
23/09/2022,00:17:58,0.000,0.0,0.0,0.0
23/09/2022,00:18:58,0.000,0.0,0.0,0.0
23/09/2022,00:19:58,0.000,0.0,0.0,0.0
23/09/2022,00:20:57,0.000,0.0,0.0,0.0
23/09/2022,00:21:58,-0.001,0.0,0.0,0.0
23/09/2022,00:22:57,0.000,0.0,0.0,0.0
23/09/2022,00:23:57,0.000,0.0,0.0,0.0
23/09/2022,00:24:57,0.001,0.0,0.0,0.0
23/09/2022,00:26:05,0.000,0.0,0.0,0.0
23/09/2022,00:26:57,0.000,0.0,0.0,0.0
23/09/2022,00:27:58,0.000,0.0,0.0,0.0
23/09/2022,00:29:22,-0.001,0.0,0.0,0.0
23/09/2022,00:30:57,0.000,0.0,0.0,0.0
23/09/2022,00:31:57,0.000,0.0,0.0,0.0
23/09/2022,00:32:57,0.000,0.0,0.0,0.0
23/09/2022,00:33:58,0.000,0.0,0.0,0.0
23/09/2022,00:34:57,0.000,0.0,0.0,0.0
23/09/2022,00:35:57,0.000,0.0,0.0,0.0
23/09/2022,00:36:57,0.000,0.0,0.0,0.0
23/09/2022,00:37:57,-0.001,0.0,0.0,0.0
23/09/2022,00:38:58,0.000,0.0,0.0,0.0
23/09/2022,00:39:57,0.000,0.0,0.0,0.0
23/09/2022,00:40:57,0.000,0.0,0.0,0.0
23/09/2022,00:42:06,0.000,0.0,0.0,0.0
23/09/2022,00:42:58,0.000,0.0,0.0,0.0
23/09/2022,00:43:58,0.000,0.0,0.0,0.0
23/09/2022,00:44:57,0.000,0.0,0.0,0.0
23/09/2022,00:45:57,0.000,0.0,0.0,0.0
23/09/2022,00:46:57,0.000,0.0,0.0,0.0
23/09/2022,00:47:57,-0.001,0.0,0.0,0.0
23/09/2022,00:48:57,0.000,0.0,0.0,0.0
23/09/2022,00:49:57,0.000,0.0,0.0,0.0
23/09/2022,00:50:58,0.000,0.0,0.0,0.0
23/09/2022,00:51:57,0.000,0.0,0.0,0.0
23/09/2022,00:52:57,0.000,0.0,0.0,0.0
23/09/2022,00:54:06,-0.001,0.0,0.0,0.0
23/09/2022,00:54:57,0.000,0.0,0.0,0.0
23/09/2022,00:55:58,0.000,0.0,0.0,0.0
23/09/2022,00:56:58,-0.000,0.0,0.0,0.0
23/09/2022,00:57:58,-0.001,0.0,0.0,0.0
23/09/2022,00:58:58,-0.001,0.0,0.0,0.0
23/09/2022,00:59:58,-0.000,0.0,0.0,0.0
23/09/2022,01:00:57,-0.000,0.0,0.0,0.0
23/09/2022,01:01:57,-0.000,0.0,0.0,0.0
23/09/2022,01:02:57,0.000,0.0,0.0,0.0
23/09/2022,01:04:05,0.001,0.0,0.0,0.0
23/09/2022,01:04:58,0.000,0.0,0.0,0.0
23/09/2022,01:05:58,0.000,0.0,0.0,0.0
23/09/2022,01:07:05,0.000,0.0,0.0,0.0
23/09/2022,01:07:58,0.000,0.0,0.0,0.0
23/09/2022,01:08:57,0.000,0.0,0.0,0.0
23/09/2022,01:09:58,0.000,0.0,0.0,0.0
23/09/2022,01:10:57,0.000,0.0,0.0,0.0
23/09/2022,01:11:57,0.000,0.0,0.0,0.0
23/09/2022,01:13:06,0.000,0.0,0.0,0.0
23/09/2022,01:13:56,0.000,0.0,0.0,0.0
23/09/2022,01:14:57,0.000,0.0,0.0,0.0
23/09/2022,01:15:57,0.000,0.0,0.0,0.0
23/09/2022,01:16:58,-0.000,0.0,0.0,0.0
23/09/2022,01:17:57,0.000,0.0,0.0,0.0
23/09/2022,01:18:57,0.000,0.0,0.0,0.0
23/09/2022,01:20:06,0.000,0.0,0.0,0.0
23/09/2022,01:20:56,0.000,0.0,0.0,0.0
23/09/2022,01:21:57,0.000,0.0,0.0,0.0
23/09/2022,01:23:05,0.000,0.0,0.0,0.0
23/09/2022,01:23:57,0.000,0.0,0.0,0.0
23/09/2022,01:24:58,-0.000,0.0,0.0,0.0
23/09/2022,01:25:57,0.000,0.0,0.0,0.0
23/09/2022,01:26:58,-0.000,0.0,0.0,0.0
23/09/2022,01:27:57,0.000,0.0,0.0,0.0
23/09/2022,01:28:58,0.000,0.0,0.0,0.0
23/09/2022,01:29:57,0.000,0.0,0.0,0.0
23/09/2022,01:30:57,0.000,0.0,0.0,0.0
23/09/2022,01:31:57,0.000,0.0,0.0,0.0
23/09/2022,01:33:06,-0.000,0.0,0.0,0.0
23/09/2022,01:33:57,0.000,0.0,0.0,0.0
23/09/2022,01:34:57,0.000,0.0,0.0,0.0
23/09/2022,01:35:57,0.001,0.0,0.0,0.0
23/09/2022,01:36:57,-0.001,0.0,0.0,0.0
23/09/2022,01:37:58,-0.001,0.0,0.0,0.0
23/09/2022,01:38:57,0.000,0.0,0.0,0.0
23/09/2022,01:39:58,-0.001,0.0,0.0,0.0
23/09/2022,01:40:58,0.000,0.0,0.0,0.0
23/09/2022,01:41:58,0.000,0.0,0.0,0.0
23/09/2022,01:42:57,-0.000,0.0,0.0,0.0
23/09/2022,01:43:58,0.000,0.0,0.0,0.0
23/09/2022,01:44:58,-0.000,0.0,0.0,0.0
23/09/2022,01:45:58,0.000,0.0,0.0,0.0
23/09/2022,01:46:57,-0.000,0.0,0.0,0.0
23/09/2022,01:47:58,-0.001,0.0,0.0,0.0
23/09/2022,01:48:57,-0.001,0.0,0.0,0.0
23/09/2022,01:49:57,0.000,0.0,0.0,0.0
23/09/2022,01:51:06,-0.000,0.0,0.0,0.0
23/09/2022,01:52:06,-0.000,0.0,0.0,0.0
23/09/2022,01:52:57,-0.000,0.0,0.0,0.0
23/09/2022,01:53:58,-0.000,0.0,0.0,0.0
23/09/2022,01:54:58,0.000,0.0,0.0,0.0
23/09/2022,01:55:58,0.000,0.0,0.0,0.0
23/09/2022,01:56:57,-0.000,0.0,0.0,0.0
23/09/2022,01:57:58,0.000,0.0,0.0,0.0
23/09/2022,01:58:57,-0.001,0.0,0.0,0.0
23/09/2022,01:59:58,0.000,0.0,0.0,0.0
23/09/2022,02:01:05,0.001,0.0,0.0,0.0
23/09/2022,02:01:58,0.000,0.0,0.0,0.0
23/09/2022,02:02:57,-0.001,0.0,0.0,0.0
23/09/2022,02:03:57,-0.001,0.0,0.0,0.0
23/09/2022,02:04:57,-0.001,0.0,0.0,0.0
23/09/2022,02:05:58,-0.000,0.0,0.0,0.0
23/09/2022,02:06:57,-0.000,0.0,0.0,0.0
23/09/2022,02:07:57,0.000,0.0,0.0,0.0
23/09/2022,02:08:58,-0.001,0.0,0.0,0.0
23/09/2022,02:09:57,0.000,0.0,0.0,0.0
23/09/2022,02:11:06,0.001,0.0,0.0,0.0
23/09/2022,02:11:58,0.000,0.0,0.0,0.0
23/09/2022,02:12:58,-0.000,0.0,0.0,0.0
23/09/2022,02:13:58,0.001,0.0,0.0,0.0
23/09/2022,02:14:57,-0.000,0.0,0.0,0.0
23/09/2022,02:15:58,-0.000,0.0,0.0,0.0
23/09/2022,02:16:58,0.001,0.0,0.0,0.0
23/09/2022,02:17:57,0.000,0.0,0.0,0.0
23/09/2022,02:18:57,0.000,0.0,0.0,0.0
23/09/2022,02:20:06,0.000,0.0,0.0,0.0
23/09/2022,02:20:58,-0.000,0.0,0.0,0.0
23/09/2022,02:21:58,-0.001,0.0,0.0,0.0
23/09/2022,02:22:58,0.000,0.0,0.0,0.0
23/09/2022,02:23:58,0.000,0.0,0.0,0.0
23/09/2022,02:24:57,0.000,0.0,0.0,0.0
23/09/2022,02:25:57,-0.000,0.0,0.0,0.0
23/09/2022,02:26:57,-0.000,0.0,0.0,0.0
23/09/2022,02:27:57,0.000,0.0,0.0,0.0
23/09/2022,02:28:58,0.001,0.0,0.0,0.0
23/09/2022,02:30:06,-0.001,0.0,0.0,0.0
23/09/2022,02:30:57,0.000,0.0,0.0,0.0
23/09/2022,02:31:57,0.000,0.0,0.0,0.0
23/09/2022,02:32:58,0.000,0.0,0.0,0.0
23/09/2022,02:33:57,0.000,0.0,0.0,0.0
23/09/2022,02:34:57,0.000,0.0,0.0,0.0
23/09/2022,02:35:58,-0.000,0.0,0.0,0.0
23/09/2022,02:36:57,0.001,0.0,0.0,0.0
23/09/2022,02:37:57,0.000,0.0,0.0,0.0
23/09/2022,02:38:57,0.000,0.0,0.0,0.0
23/09/2022,02:39:57,-0.000,0.0,0.0,0.0
23/09/2022,02:40:58,0.000,0.0,0.0,0.0
23/09/2022,02:41:58,-0.001,0.0,0.0,0.0
23/09/2022,02:42:57,0.000,0.0,0.0,0.0
23/09/2022,02:43:59,0.000,0.0,0.0,0.0
23/09/2022,02:44:58,-0.001,0.0,0.0,0.0
23/09/2022,02:45:58,0.001,0.0,0.0,0.0
23/09/2022,02:46:58,0.000,0.0,0.0,0.0
23/09/2022,02:47:48,-0.001,0.0,0.0,0.0
23/09/2022,02:48:58,0.000,0.0,0.0,0.0
23/09/2022,02:49:57,-0.001,0.0,0.0,0.0
23/09/2022,02:50:58,0.000,0.0,0.0,0.0
23/09/2022,02:51:57,0.000,0.0,0.0,0.0
23/09/2022,02:52:58,-0.001,0.0,0.0,0.0
23/09/2022,02:53:57,-0.001,0.0,0.0,0.0
23/09/2022,02:54:58,0.000,0.0,0.0,0.0
23/09/2022,02:55:58,0.000,0.0,0.0,0.0
23/09/2022,02:56:57,-0.001,0.0,0.0,0.0
23/09/2022,02:57:57,0.000,0.0,0.0,0.0
23/09/2022,02:58:57,0.001,0.0,0.0,0.0
23/09/2022,02:59:58,0.000,0.0,0.0,0.0
23/09/2022,03:00:57,0.000,0.0,0.0,0.0
23/09/2022,03:01:58,0.000,0.0,0.0,0.0
23/09/2022,03:02:59,-0.001,0.0,0.0,0.0
23/09/2022,03:03:58,0.000,0.0,0.0,0.0
23/09/2022,03:04:57,-0.000,0.0,0.0,0.0
23/09/2022,03:05:58,-0.000,0.0,0.0,0.0
23/09/2022,03:06:57,0.001,0.0,0.0,0.0
23/09/2022,03:07:58,0.001,0.0,0.0,0.0
23/09/2022,03:08:57,0.001,0.0,0.0,0.0
23/09/2022,03:09:57,0.000,0.0,0.0,0.0
23/09/2022,03:10:58,0.000,0.0,0.0,0.0
23/09/2022,03:11:58,-0.001,0.0,0.0,0.0
23/09/2022,03:12:58,0.001,0.0,0.0,0.0
23/09/2022,03:14:06,-0.000,0.0,0.0,0.0
23/09/2022,03:14:58,0.000,0.0,0.0,0.0
23/09/2022,03:15:58,-0.001,0.0,0.0,0.0
23/09/2022,03:17:07,-0.001,0.0,0.0,0.0
23/09/2022,03:17:56,0.001,0.0,0.0,0.0
23/09/2022,03:18:58,0.000,0.0,0.0,0.0
23/09/2022,03:19:57,0.000,0.0,0.0,0.0
23/09/2022,03:20:57,0.000,0.0,0.0,0.0
23/09/2022,03:21:58,-0.001,0.0,0.0,0.0
23/09/2022,03:22:58,-0.001,0.0,0.0,0.0
23/09/2022,03:23:58,0.001,0.0,0.0,0.0
23/09/2022,03:24:57,0.000,0.0,0.0,0.0
23/09/2022,03:25:57,0.000,0.0,0.0,0.0
23/09/2022,03:27:06,0.000,0.0,0.0,0.0
23/09/2022,03:27:58,0.000,0.0,0.0,0.0
23/09/2022,03:28:58,0.000,0.0,0.0,0.0
23/09/2022,03:30:06,0.000,0.0,0.0,0.0
23/09/2022,03:30:57,0.001,0.0,0.0,0.0
23/09/2022,03:31:58,0.000,0.0,0.0,0.0
23/09/2022,03:32:57,0.000,0.0,0.0,0.0
23/09/2022,03:33:58,0.000,0.0,0.0,0.0
23/09/2022,03:34:57,0.000,0.0,0.0,0.0
23/09/2022,03:35:57,0.001,0.0,0.0,0.0
23/09/2022,03:36:58,0.000,0.0,0.0,0.0
23/09/2022,03:37:58,0.001,0.0,0.0,0.0
23/09/2022,03:38:57,0.000,0.0,0.0,0.0
23/09/2022,03:39:58,-0.001,0.0,0.0,0.0
23/09/2022,03:40:57,0.000,0.0,0.0,0.0
23/09/2022,03:41:58,0.000,0.0,0.0,0.0
23/09/2022,03:42:57,0.001,0.0,0.0,0.0
23/09/2022,03:43:58,0.000,0.0,0.0,0.0
23/09/2022,03:44:58,0.000,0.0,0.0,0.0
23/09/2022,03:45:57,-0.001,0.0,0.0,0.0
23/09/2022,03:46:57,0.000,0.0,0.0,0.0
23/09/2022,03:47:57,0.000,0.0,0.0,0.0
23/09/2022,03:48:57,0.000,0.0,0.0,0.0
23/09/2022,03:49:58,-0.000,0.0,0.0,0.0
23/09/2022,03:50:58,-0.001,0.0,0.0,0.0
23/09/2022,03:51:58,-0.001,0.0,0.0,0.0
23/09/2022,03:52:58,0.001,0.0,0.0,0.0
23/09/2022,03:53:58,0.000,0.0,0.0,0.0
23/09/2022,03:54:58,-0.001,0.0,0.0,0.0
23/09/2022,03:55:57,-0.001,0.0,0.0,0.0
23/09/2022,03:56:58,-0.000,0.0,0.0,0.0
23/09/2022,03:57:58,-0.001,0.0,0.0,0.0
23/09/2022,03:58:58,0.000,0.0,0.0,0.0
23/09/2022,03:59:58,0.000,0.0,0.0,0.0
23/09/2022,04:00:58,0.000,0.0,0.0,0.0
23/09/2022,04:01:58,0.000,0.0,0.0,0.0
23/09/2022,04:02:57,-0.001,0.0,0.0,0.0
23/09/2022,04:03:57,-0.001,0.0,0.0,0.0
23/09/2022,04:05:06,0.000,0.0,0.0,0.0
23/09/2022,04:05:57,-0.001,0.0,0.0,0.0
23/09/2022,04:06:58,0.001,0.0,0.0,0.0
23/09/2022,04:08:06,0.000,0.0,0.0,0.0
23/09/2022,04:08:58,-0.000,0.0,0.0,0.0
23/09/2022,04:09:58,0.000,0.0,0.0,0.0
23/09/2022,04:10:58,0.000,0.0,0.0,0.0
23/09/2022,04:11:58,0.000,0.0,0.0,0.0
23/09/2022,04:12:57,0.000,0.0,0.0,0.0
23/09/2022,04:13:58,0.000,0.0,0.0,0.0
23/09/2022,04:14:58,-0.001,0.0,0.0,0.0
23/09/2022,04:15:58,-0.001,0.0,0.0,0.0
23/09/2022,04:16:58,0.001,0.0,0.0,0.0
23/09/2022,04:17:57,-0.001,0.0,0.0,0.0
23/09/2022,04:18:57,0.001,0.0,0.0,0.0
23/09/2022,04:19:58,0.000,0.0,0.0,0.0
23/09/2022,04:20:57,0.000,0.0,0.0,0.0
23/09/2022,04:21:58,0.000,0.0,0.0,0.0
23/09/2022,04:22:57,0.000,0.0,0.0,0.0
23/09/2022,04:23:58,0.000,0.0,0.0,0.0
23/09/2022,04:24:58,-0.001,0.0,0.0,0.0
23/09/2022,04:25:58,0.000,0.0,0.0,0.0
23/09/2022,04:26:58,0.000,0.0,0.0,0.0
23/09/2022,04:27:58,-0.001,0.0,0.0,0.0
23/09/2022,04:28:58,0.001,0.0,0.0,0.0
23/09/2022,04:29:58,0.000,0.0,0.0,0.0
23/09/2022,04:30:58,-0.000,0.0,0.0,0.0
23/09/2022,04:31:58,0.000,0.0,0.0,0.0
23/09/2022,04:32:58,0.000,0.0,0.0,0.0
23/09/2022,04:33:58,0.001,0.0,0.0,0.0
23/09/2022,04:34:57,0.000,0.0,0.0,0.0
23/09/2022,04:36:06,-0.000,0.0,0.0,0.0
23/09/2022,04:36:57,0.000,0.0,0.0,0.0
23/09/2022,04:37:57,0.000,0.0,0.0,0.0
23/09/2022,04:38:58,0.000,0.0,0.0,0.0
23/09/2022,04:39:58,0.000,0.0,0.0,0.0
23/09/2022,04:40:58,-0.000,0.0,0.0,0.0
23/09/2022,04:41:57,0.000,0.0,0.0,0.0
23/09/2022,04:42:58,-0.001,0.0,0.0,0.0
23/09/2022,04:43:58,0.000,0.0,0.0,0.0
23/09/2022,04:44:58,0.000,0.0,0.0,0.0
23/09/2022,04:46:07,0.001,0.0,0.0,0.0
23/09/2022,04:46:56,0.000,0.0,0.0,0.0
23/09/2022,04:47:58,0.000,0.0,0.0,0.0
23/09/2022,04:49:06,0.001,0.0,0.0,0.0
23/09/2022,04:49:58,-0.000,0.0,0.0,0.0
23/09/2022,04:50:57,-0.001,0.0,0.0,0.0
23/09/2022,04:51:58,0.001,0.0,0.0,0.0
23/09/2022,04:52:58,0.000,0.0,0.0,0.0
23/09/2022,04:54:06,-0.000,0.0,0.0,0.0
23/09/2022,04:54:57,0.000,0.0,0.0,0.0
23/09/2022,04:56:07,0.000,0.0,0.0,0.0
23/09/2022,04:56:58,0.001,0.0,0.0,0.0
23/09/2022,04:57:58,0.000,0.0,0.0,0.0
23/09/2022,04:58:58,0.000,0.0,0.0,0.0
23/09/2022,04:59:58,-0.001,0.0,0.0,0.0
23/09/2022,05:00:58,0.000,0.0,0.0,0.0
23/09/2022,05:02:06,0.001,0.0,0.0,0.0
23/09/2022,05:02:57,-0.000,0.0,0.0,0.0
23/09/2022,05:03:57,0.000,0.0,0.0,0.0
23/09/2022,05:04:58,0.000,0.0,0.0,0.0
23/09/2022,05:05:58,-0.001,0.0,0.0,0.0
23/09/2022,05:06:58,0.001,0.0,0.0,0.0
23/09/2022,05:07:58,0.000,0.0,0.0,0.0
23/09/2022,05:08:58,0.000,0.0,0.0,0.0
23/09/2022,05:09:58,0.000,0.0,0.0,0.0
23/09/2022,05:10:58,0.000,0.0,0.0,0.0
23/09/2022,05:11:58,0.000,0.0,0.0,0.0
23/09/2022,05:12:58,0.000,0.0,0.0,0.0
23/09/2022,05:14:06,0.000,0.0,0.0,0.0
23/09/2022,05:14:57,0.000,0.0,0.0,0.0
23/09/2022,05:15:58,-0.000,0.0,0.0,0.0
23/09/2022,05:16:58,0.000,0.0,0.0,0.0
23/09/2022,05:17:58,0.000,0.0,0.0,0.0
23/09/2022,05:18:57,-0.000,0.0,0.0,0.0
23/09/2022,05:19:58,0.001,0.0,0.0,0.0
23/09/2022,05:20:57,0.000,0.0,0.0,0.0
23/09/2022,05:21:58,0.000,0.0,0.0,0.0
23/09/2022,05:22:58,-0.000,0.0,0.0,0.0
23/09/2022,05:23:58,0.000,0.0,0.0,0.0
23/09/2022,05:24:57,0.000,0.0,0.0,0.0
23/09/2022,05:25:58,0.000,0.0,0.0,0.0
23/09/2022,05:26:58,0.000,0.0,0.0,0.0
23/09/2022,05:28:00,-0.000,0.0,0.0,0.0
23/09/2022,05:28:58,0.000,0.0,0.0,0.0
23/09/2022,05:30:06,0.000,0.0,0.0,0.0
23/09/2022,05:30:56,0.000,0.0,0.0,0.0
23/09/2022,05:31:58,0.000,0.0,0.0,0.0
23/09/2022,05:33:11,0.001,0.0,0.0,0.0
23/09/2022,05:34:59,-0.001,0.0,0.0,0.0
23/09/2022,05:35:58,0.001,0.0,0.0,0.0
23/09/2022,05:36:58,0.001,0.0,0.0,0.0
23/09/2022,05:37:58,0.001,0.0,0.0,0.0
23/09/2022,05:38:58,0.001,0.0,0.0,0.0
23/09/2022,05:39:58,0.001,0.0,0.0,0.0
23/09/2022,05:40:59,0.001,0.0,0.0,0.0
23/09/2022,05:41:58,0.001,0.0,0.0,0.0
23/09/2022,05:43:06,0.001,0.0,0.0,0.0
23/09/2022,05:43:58,0.001,0.0,0.0,0.0
23/09/2022,05:44:58,0.001,0.0,0.0,0.0
23/09/2022,05:45:58,0.001,0.0,0.0,0.0
23/09/2022,05:46:58,0.001,0.0,0.0,0.0
23/09/2022,05:47:58,0.001,0.0,0.0,0.0
23/09/2022,05:48:58,0.002,0.0,0.0,0.0
23/09/2022,05:49:58,0.002,0.0,0.0,0.0
23/09/2022,05:50:58,0.001,0.0,0.0,0.0
23/09/2022,05:51:58,0.002,0.0,0.0,0.0
23/09/2022,05:52:58,0.002,0.0,0.0,0.0
23/09/2022,05:53:58,0.002,0.0,0.0,0.0
23/09/2022,05:54:57,0.002,0.0,0.0,0.0
23/09/2022,05:55:58,0.002,0.0,0.0,0.0
23/09/2022,05:56:58,0.002,0.0,0.0,0.0
23/09/2022,05:57:58,0.001,0.0,0.0,0.0
23/09/2022,05:58:58,0.003,0.0,0.0,0.0
23/09/2022,05:59:58,0.003,0.0,0.0,0.0
23/09/2022,06:01:07,0.003,0.0,0.0,0.0
23/09/2022,06:01:58,0.003,0.0,0.0,0.0
23/09/2022,06:02:58,0.003,0.0,0.0,0.0
23/09/2022,06:03:58,0.003,0.0,0.0,0.0
23/09/2022,06:04:58,0.004,0.0,0.0,0.0
23/09/2022,06:05:58,0.004,0.0,0.0,0.0
23/09/2022,06:06:58,0.004,0.0,0.0,0.0
23/09/2022,06:07:59,0.005,0.0,0.0,0.0
23/09/2022,06:08:58,0.005,0.0,0.0,0.0
23/09/2022,06:09:58,0.004,0.0,0.0,0.0
23/09/2022,06:11:06,0.005,0.0,0.0,0.0
23/09/2022,06:11:58,0.006,0.0,0.0,0.0
23/09/2022,06:12:58,0.006,0.0,0.0,0.0
23/09/2022,06:14:07,0.006,0.0,0.0,0.0
23/09/2022,06:14:58,0.007,0.0,0.0,0.0
23/09/2022,06:15:58,0.007,0.0,0.0,0.0
23/09/2022,06:16:58,0.008,0.0,0.0,0.0
23/09/2022,06:17:58,0.008,0.0,0.001,0.001
23/09/2022,06:18:57,0.008,0.0,0.001,0.0
23/09/2022,06:19:57,0.008,0.0,0.001,0.0
23/09/2022,06:20:58,0.009,0.0,0.001,0.0
23/09/2022,06:21:57,0.010,0.0,0.001,0.0
23/09/2022,06:22:58,0.009,0.0,0.001,0.0
23/09/2022,06:24:07,0.009,0.0,0.001,0.0
23/09/2022,06:24:58,0.009,0.0,0.002,0.001
23/09/2022,06:25:58,0.011,0.0,0.002,0.0
23/09/2022,06:27:06,0.009,0.0,0.002,0.0
23/09/2022,06:27:57,0.011,0.0,0.002,0.0
23/09/2022,06:28:58,0.011,0.0,0.002,0.0
23/09/2022,06:29:58,0.012,0.0,0.003,0.001
23/09/2022,06:30:58,0.012,0.0,0.003,0.0
23/09/2022,06:31:58,0.014,0.0,0.003,0.0
23/09/2022,06:32:58,0.014,0.0,0.003,0.0
23/09/2022,06:33:58,0.013,0.0,0.003,0.0
23/09/2022,06:34:49,0.015,0.0,0.004,0.001
23/09/2022,06:35:58,0.015,0.0,0.004,0.0
23/09/2022,06:36:58,0.015,0.0,0.004,0.0
23/09/2022,06:37:58,0.016,0.0,0.004,0.0
23/09/2022,06:38:58,0.017,0.0,0.005,0.001
23/09/2022,06:39:58,0.017,0.0,0.005,0.0
23/09/2022,06:40:58,0.019,0.0,0.005,0.0
23/09/2022,06:42:06,0.019,0.0,0.006,0.001
23/09/2022,06:42:58,0.019,0.0,0.006,0.0
23/09/2022,06:43:58,0.020,0.0,0.006,0.0
23/09/2022,06:44:58,0.021,0.0,0.007,0.001
23/09/2022,06:45:58,0.023,0.0,0.007,0.0
23/09/2022,06:46:58,0.026,0.0,0.007,0.0
23/09/2022,06:47:58,0.027,0.0,0.008,0.001
23/09/2022,06:48:58,0.030,0.0,0.008,0.0
23/09/2022,06:49:58,0.033,0.0,0.009,0.001
23/09/2022,06:50:58,0.036,0.0,0.009,0.0
23/09/2022,06:52:31,0.040,0.0,0.01,0.001
23/09/2022,06:53:59,0.043,0.0,0.011,0.001
23/09/2022,06:55:06,0.044,0.0,0.012,0.001
23/09/2022,06:55:58,0.045,0.0,0.013,0.001
23/09/2022,06:56:58,0.046,0.0,0.013,0.0
23/09/2022,06:58:06,0.049,0.0,0.014,0.001
23/09/2022,06:58:58,0.049,0.0,0.015,0.001
23/09/2022,06:59:58,0.050,0.0,0.016,0.001
23/09/2022,07:00:58,0.051,0.0,0.017,0.001
23/09/2022,07:01:58,0.052,0.0,0.018,0.001
23/09/2022,07:02:58,0.054,0.0,0.019,0.001
23/09/2022,07:03:58,0.055,0.0,0.019,0.0
23/09/2022,07:04:58,0.055,0.0,0.02,0.001
23/09/2022,07:05:58,0.057,0.0,0.021,0.001
23/09/2022,07:06:58,0.057,0.0,0.022,0.001
23/09/2022,07:07:58,0.058,0.0,0.023,0.001
23/09/2022,07:08:58,0.059,0.0,0.024,0.001
23/09/2022,07:09:58,0.061,0.0,0.025,0.001
23/09/2022,07:10:58,0.064,0.0,0.026,0.001
23/09/2022,07:11:58,0.065,0.0,0.027,0.001
23/09/2022,07:12:58,0.067,0.0,0.028,0.001
23/09/2022,07:13:58,0.070,0.0,0.029,0.001
23/09/2022,07:14:58,0.073,0.0,0.031,0.002
23/09/2022,07:15:58,0.074,0.0,0.032,0.001
23/09/2022,07:17:06,0.076,0.0,0.033,0.001
23/09/2022,07:17:58,0.077,0.0,0.034,0.001
23/09/2022,07:18:58,0.080,0.0,0.036,0.002
23/09/2022,07:19:58,0.083,0.0,0.037,0.001
23/09/2022,07:20:58,0.084,0.0,0.038,0.001
23/09/2022,07:21:58,0.087,0.0,0.04,0.002
23/09/2022,07:22:58,0.089,0.0,0.041,0.001
23/09/2022,07:23:58,0.092,0.0,0.043,0.002
23/09/2022,07:24:58,0.095,0.0,0.044,0.001
23/09/2022,07:25:58,0.098,0.0,0.046,0.002
23/09/2022,07:26:59,0.101,0.0,0.048,0.002
23/09/2022,07:27:58,0.105,0.0,0.049,0.001
23/09/2022,07:28:57,0.107,0.0,0.051,0.002
23/09/2022,07:29:58,0.110,0.0,0.053,0.002
23/09/2022,07:30:58,0.111,0.0,0.055,0.002
23/09/2022,07:31:58,0.112,0.0,0.057,0.002
23/09/2022,07:33:06,0.117,0.0,0.059,0.002
23/09/2022,07:33:58,0.117,0.0,0.061,0.002
23/09/2022,07:34:58,0.119,0.0,0.063,0.002
23/09/2022,07:35:58,0.122,0.0,0.065,0.002
23/09/2022,07:36:59,0.126,0.0,0.067,0.002
23/09/2022,07:37:58,0.127,0.0,0.069,0.002
23/09/2022,07:38:58,0.128,0.0,0.071,0.002
23/09/2022,07:39:50,0.133,0.0,0.073,0.002
23/09/2022,07:40:59,0.135,0.0,0.075,0.002
23/09/2022,07:41:58,0.138,0.0,0.078,0.003
23/09/2022,07:42:58,0.142,0.0,0.08,0.002
23/09/2022,07:43:58,0.145,0.0,0.082,0.002
23/09/2022,07:45:06,0.149,0.0,0.085,0.003
23/09/2022,07:45:58,0.152,0.0,0.087,0.002
23/09/2022,07:46:58,0.155,0.0,0.09,0.003
23/09/2022,07:48:06,0.158,0.0,0.093,0.003
23/09/2022,07:48:58,0.160,0.0,0.095,0.002
23/09/2022,07:49:58,0.163,0.0,0.098,0.003
23/09/2022,07:50:58,0.167,0.0,0.1,0.002
23/09/2022,07:51:58,0.169,0.0,0.103,0.003
23/09/2022,07:52:58,0.173,0.0,0.106,0.003
23/09/2022,07:53:58,0.170,0.0,0.109,0.003
23/09/2022,07:54:58,0.166,0.0,0.112,0.003
23/09/2022,07:55:58,0.169,0.0,0.115,0.003
23/09/2022,07:56:58,0.156,0.0,0.117,0.002
23/09/2022,07:57:58,0.155,0.0,0.12,0.003
23/09/2022,07:58:58,0.155,0.0,0.122,0.002
23/09/2022,07:59:58,0.149,0.0,0.125,0.003
23/09/2022,08:00:58,0.141,0.0,0.127,0.002
23/09/2022,08:01:58,0.140,0.0,0.13,0.003
23/09/2022,08:02:58,0.136,0.0,0.132,0.002
23/09/2022,08:04:06,0.132,0.0,0.134,0.002
23/09/2022,08:04:58,0.135,0.0,0.136,0.002
23/09/2022,08:05:58,0.146,0.0,0.139,0.003
23/09/2022,08:06:58,0.152,0.0,0.141,0.002
23/09/2022,08:07:58,0.147,0.0,0.144,0.003
23/09/2022,08:08:58,0.139,0.0,0.146,0.002
23/09/2022,08:09:58,0.126,0.0,0.148,0.002
23/09/2022,08:10:58,0.119,0.0,0.15,0.002
23/09/2022,08:11:58,0.127,0.0,0.152,0.002
23/09/2022,08:12:58,0.132,0.0,0.155,0.003
23/09/2022,08:13:58,0.137,0.0,0.157,0.002
23/09/2022,08:14:58,0.134,0.0,0.159,0.002
23/09/2022,08:15:58,0.133,0.0,0.161,0.002
23/09/2022,08:16:58,0.135,0.0,0.163,0.002
23/09/2022,08:17:58,0.140,0.0,0.166,0.003
23/09/2022,08:18:58,0.139,0.0,0.168,0.002
23/09/2022,08:19:58,0.117,0.0,0.17,0.002
23/09/2022,08:20:59,0.096,0.0,0.172,0.002
23/09/2022,08:21:58,0.086,0.0,0.174,0.002
23/09/2022,08:22:58,0.082,0.0,0.175,0.001
23/09/2022,08:23:58,0.091,0.0,0.176,0.001
23/09/2022,08:24:58,0.110,0.0,0.178,0.002
23/09/2022,08:25:58,0.128,0.0,0.18,0.002
23/09/2022,08:26:58,0.147,0.0,0.182,0.002
23/09/2022,08:27:58,0.171,0.0,0.185,0.003
23/09/2022,08:29:07,0.191,0.0,0.188,0.003
23/09/2022,08:29:58,0.192,0.0,0.191,0.003
23/09/2022,08:30:58,0.188,0.0,0.194,0.003
23/09/2022,08:32:07,0.192,0.0,0.198,0.004
23/09/2022,08:32:58,0.198,0.0,0.201,0.003
23/09/2022,08:33:58,0.208,0.0,0.204,0.003
23/09/2022,08:35:06,0.213,0.0,0.208,0.004
23/09/2022,08:35:58,0.220,1.0,0.211,0.003
23/09/2022,08:36:58,0.223,1.0,0.215,0.004
23/09/2022,08:37:58,0.216,0.0,0.219,0.004
23/09/2022,08:38:58,0.222,1.0,0.222,0.003
23/09/2022,08:39:58,0.236,1.0,0.226,0.004
23/09/2022,08:40:58,0.253,1.0,0.23,0.004
23/09/2022,08:41:58,0.268,1.0,0.234,0.004
23/09/2022,08:42:58,0.278,1.0,0.239,0.005
23/09/2022,08:43:58,0.285,1.0,0.244,0.005
23/09/2022,08:45:06,0.296,1.0,0.249,0.005
23/09/2022,08:45:58,0.303,1.0,0.254,0.005
23/09/2022,08:47:06,0.313,1.0,0.259,0.005
23/09/2022,08:48:06,0.327,1.0,0.265,0.006
23/09/2022,08:48:58,0.331,1.0,0.269,0.004
23/09/2022,08:49:58,0.340,1.0,0.275,0.006
23/09/2022,08:50:58,0.360,1.0,0.281,0.006
23/09/2022,08:51:59,0.359,1.0,0.287,0.006
23/09/2022,08:52:58,0.371,1.0,0.293,0.006
23/09/2022,08:53:58,0.444,1.0,0.3,0.007
23/09/2022,08:54:58,0.453,1.0,0.307,0.007
23/09/2022,08:55:58,0.460,1.0,0.315,0.008
23/09/2022,08:56:59,0.464,1.0,0.323,0.008
23/09/2022,08:57:58,0.470,1.0,0.33,0.007
23/09/2022,08:58:58,0.475,1.0,0.338,0.008
23/09/2022,09:00:07,0.483,1.0,0.347,0.009
23/09/2022,09:00:58,0.486,1.0,0.354,0.007
23/09/2022,09:01:58,0.484,1.0,0.362,0.008
23/09/2022,09:03:07,0.469,1.0,0.371,0.009
23/09/2022,09:03:58,0.477,1.0,0.378,0.007
23/09/2022,09:04:58,0.377,1.0,0.385,0.007
23/09/2022,09:05:58,0.323,1.0,0.391,0.006
23/09/2022,09:06:58,0.249,1.0,0.396,0.005
23/09/2022,09:07:59,0.216,0.0,0.4,0.004
23/09/2022,09:08:58,0.201,0.0,0.403,0.003
23/09/2022,09:09:58,0.193,0.0,0.407,0.004
23/09/2022,09:10:59,0.200,0.0,0.41,0.003
23/09/2022,09:11:58,0.258,1.0,0.414,0.004
23/09/2022,09:12:58,0.318,1.0,0.418,0.004
23/09/2022,09:13:59,0.340,1.0,0.424,0.006
23/09/2022,09:14:58,0.329,1.0,0.43,0.006
23/09/2022,09:15:58,0.320,1.0,0.435,0.005
23/09/2022,09:16:58,0.317,1.0,0.44,0.005
23/09/2022,09:17:58,0.321,1.0,0.446,0.006
23/09/2022,09:18:58,0.316,1.0,0.451,0.005
23/09/2022,09:19:58,0.310,1.0,0.456,0.005
23/09/2022,09:20:58,0.325,1.0,0.461,0.005
23/09/2022,09:21:58,0.347,1.0,0.467,0.006
23/09/2022,09:22:58,0.366,1.0,0.473,0.006
23/09/2022,09:23:58,0.378,1.0,0.479,0.006
23/09/2022,09:24:58,0.396,1.0,0.486,0.007
23/09/2022,09:25:58,0.421,1.0,0.492,0.006
23/09/2022,09:26:58,0.450,1.0,0.5,0.008
23/09/2022,09:28:06,0.543,1.0,0.509,0.009
23/09/2022,09:28:58,0.560,1.0,0.517,0.008
23/09/2022,09:29:58,0.468,1.0,0.525,0.008
23/09/2022,09:30:58,0.481,1.0,0.533,0.008
23/09/2022,09:31:58,0.505,1.0,0.541,0.008
23/09/2022,09:32:58,0.473,1.0,0.55,0.009
23/09/2022,09:33:58,0.491,1.0,0.558,0.008
23/09/2022,09:34:58,0.609,1.0,0.568,0.01
23/09/2022,09:35:59,0.640,1.0,0.578,0.01
23/09/2022,09:36:58,0.636,1.0,0.589,0.011
23/09/2022,09:37:58,0.488,1.0,0.598,0.009
23/09/2022,09:38:58,0.628,1.0,0.607,0.009
23/09/2022,09:39:58,0.645,1.0,0.618,0.011
23/09/2022,09:40:58,0.645,1.0,0.628,0.01
23/09/2022,09:41:58,0.528,1.0,0.638,0.01
23/09/2022,09:42:58,0.602,1.0,0.648,0.01
23/09/2022,09:44:07,0.621,1.0,0.659,0.011
23/09/2022,09:44:58,0.588,1.0,0.668,0.009
23/09/2022,09:45:59,0.684,2.0,0.678,0.01
23/09/2022,09:46:58,0.642,1.0,0.689,0.011
23/09/2022,09:47:58,0.640,1.0,0.699,0.01
23/09/2022,09:48:59,0.538,1.0,0.709,0.01
23/09/2022,09:49:58,0.540,1.0,0.718,0.009
23/09/2022,09:50:58,0.543,1.0,0.727,0.009
23/09/2022,09:51:58,0.523,1.0,0.736,0.009
23/09/2022,09:52:59,0.492,1.0,0.744,0.008
23/09/2022,09:53:58,0.468,1.0,0.752,0.008
23/09/2022,09:54:58,0.452,1.0,0.76,0.008
23/09/2022,09:56:15,0.416,1.0,0.769,0.009
23/09/2022,09:57:59,0.433,1.0,0.782,0.013
23/09/2022,09:59:06,0.437,1.0,0.79,0.008
23/09/2022,09:59:59,0.437,1.0,0.796,0.006
23/09/2022,10:00:59,0.443,1.0,0.803,0.007
23/09/2022,10:02:06,0.451,1.0,0.812,0.009
23/09/2022,10:02:58,0.458,1.0,0.818,0.006
23/09/2022,10:04:07,0.460,1.0,0.827,0.009
23/09/2022,10:04:58,0.452,1.0,0.833,0.006
23/09/2022,10:05:58,0.437,1.0,0.841,0.008
23/09/2022,10:06:58,0.405,1.0,0.848,0.007
23/09/2022,10:07:58,0.372,1.0,0.854,0.006
23/09/2022,10:08:59,0.358,1.0,0.86,0.006